LGR888 FAUH-FAYP

Flight info

Callsign LGR888
Flight time N/A
Altitude 8000
Route OKRAV Q49 GRV A402 CTV
Aircraft R66/L-SFG/C

Departure

Time 2026-04-28 05:17
Airport Uitenhage Airport (FAUH)

Arrival

Time N/A
Airport Ysterplaat Air Force Base (FAYP)
Time Latitude Longitude Altitude Speed Heading
2026-04-28 05:05 -33.78490 25.38092 288 ft 0 kts 109°
2026-04-28 05:13 -33.78485 25.38093 289 ft 5 kts 181°
2026-04-28 05:13 -33.78494 25.38122 309 ft 4 kts 203°
2026-04-28 05:13 -33.78565 25.38080 322 ft 9 kts 214°
2026-04-28 05:14 -33.78620 25.38046 317 ft 9 kts 233°
2026-04-28 05:14 -33.78648 25.37996 305 ft 11 kts 256°
2026-04-28 05:14 -33.78671 25.37939 309 ft 8 kts 253°
2026-04-28 05:14 -33.78704 25.37930 291 ft 2 kts 137°
2026-04-28 05:15 -33.78701 25.37942 297 ft 2 kts 103°
2026-04-28 05:15 -33.78636 25.38127 329 ft 53 kts 58°
2026-04-28 05:16 -33.78285 25.38657 432 ft 91 kts 79°
2026-04-28 05:16 -33.78049 25.39329 791 ft 83 kts 108°
2026-04-28 05:16 -33.78085 25.40070 881 ft 108 kts 112°
2026-04-28 05:17 -33.77447 25.41990 824 ft 133 kts 32°
2026-04-28 05:17 -33.76632 25.42411 864 ft 124 kts
2026-04-28 05:17 -33.75862 25.42290 1010 ft 103 kts 330°
2026-04-28 05:17 -33.75138 25.42265 1265 ft 102 kts 349°
2026-04-28 05:18 -33.74532 25.41957 1433 ft 88 kts 309°
2026-04-28 05:18 -33.74322 25.41345 1600 ft 77 kts 268°
2026-04-28 05:18 -33.74569 25.40804 1749 ft 77 kts 232°
2026-04-28 05:18 -33.74955 25.40382 1980 ft 73 kts 228°
2026-04-28 05:19 -33.75324 25.39986 2211 ft 71 kts 230°
2026-04-28 05:19 -33.75684 25.39598 2438 ft 70 kts 230°
2026-04-28 05:19 -33.76051 25.39202 2685 ft 72 kts 231°
2026-04-28 05:19 -33.76428 25.38788 2911 ft 75 kts 230°
2026-04-28 05:20 -33.76811 25.38370 3135 ft 75 kts 230°
2026-04-28 05:20 -33.77202 25.37950 3352 ft 75 kts 229°
2026-04-28 05:20 -33.77590 25.37529 3583 ft 74 kts 229°
2026-04-28 05:20 -33.77971 25.37112 3808 ft 73 kts 230°
2026-04-28 05:21 -33.78301 25.36661 4038 ft 72 kts 236°
2026-04-28 05:21 -33.78578 25.36173 4262 ft 71 kts 240°
2026-04-28 05:21 -33.78818 25.35664 4505 ft 71 kts 245°
2026-04-28 05:21 -33.79039 25.35110 4737 ft 74 kts 246°
2026-04-28 05:22 -33.79242 25.34540 4968 ft 75 kts 247°
2026-04-28 05:22 -33.79437 25.33954 5205 ft 75 kts 248°
2026-04-28 05:22 -33.79620 25.33369 5434 ft 76 kts 248°
2026-04-28 05:22 -33.79798 25.32768 5666 ft 76 kts 248°
2026-04-28 05:23 -33.79969 25.32178 5892 ft 76 kts 249°
2026-04-28 05:23 -33.80138 25.31576 6116 ft 76 kts 248°
2026-04-28 05:23 -33.80307 25.30976 6344 ft 75 kts 248°
2026-04-28 05:23 -33.80471 25.30380 6574 ft 75 kts 248°
2026-04-28 05:24 -33.80631 25.29796 6796 ft 74 kts 248°
2026-04-28 05:24 -33.80793 25.29205 7025 ft 74 kts 249°
2026-04-28 05:24 -33.80951 25.28627 7251 ft 73 kts 249°
2026-04-28 05:24 -33.81110 25.28039 7481 ft 73 kts 249°
2026-04-28 05:25 -33.81263 25.27473 7798 ft 70 kts 251°
2026-04-28 05:25 -33.81409 25.26916 8048 ft 78 kts 251°
2026-04-28 05:25 -33.81599 25.26212 8042 ft 97 kts 248°
2026-04-28 05:25 -33.81819 25.25426 8001 ft 99 kts 246°
2026-04-28 05:26 -33.82033 25.24658 8006 ft 93 kts 246°
2026-04-28 05:26 -33.82236 25.23928 8011 ft 90 kts 246°
2026-04-28 05:26 -33.82430 25.23214 8012 ft 87 kts 246°
2026-04-28 05:26 -33.82614 25.22543 8016 ft 83 kts 245°
2026-04-28 05:27 -33.82796 25.21874 8028 ft 86 kts 246°
2026-04-28 05:27 -33.82985 25.21169 8019 ft 89 kts 246°
2026-04-28 05:27 -33.83179 25.20450 8014 ft 89 kts 246°
2026-04-28 05:27 -33.83368 25.19748 8013 ft 86 kts 246°
2026-04-28 05:28 -33.83551 25.19068 8016 ft 85 kts 245°
2026-04-28 05:28 -33.83735 25.18389 8017 ft 85 kts 246°
2026-04-28 05:28 -33.83917 25.17715 8017 ft 85 kts 246°
2026-04-28 05:28 -33.84099 25.17038 8018 ft 84 kts 245°
2026-04-28 05:29 -33.84279 25.16369 8020 ft 84 kts 246°
2026-04-28 05:29 -33.84461 25.15695 8021 ft 84 kts 246°
2026-04-28 05:29 -33.84645 25.15014 8021 ft 85 kts 247°
2026-04-28 05:29 -33.84826 25.14342 8020 ft 85 kts 247°
2026-04-28 05:30 -33.85007 25.13660 8019 ft 85 kts 246°
2026-04-28 05:30 -33.85189 25.12987 8018 ft 85 kts 247°
2026-04-28 05:30 -33.85370 25.12306 8018 ft 85 kts 246°
2026-04-28 05:30 -33.85554 25.11621 8018 ft 85 kts 246°
2026-04-28 05:31 -33.85737 25.10942 8018 ft 85 kts 246°
2026-04-28 05:31 -33.85919 25.10259 8018 ft 85 kts 246°
2026-04-28 05:31 -33.86102 25.09578 8018 ft 85 kts 246°
2026-04-28 05:31 -33.86282 25.08900 8016 ft 85 kts 245°
2026-04-28 05:32 -33.86464 25.08224 8017 ft 84 kts 245°
2026-04-28 05:32 -33.86646 25.07547 8015 ft 85 kts 245°
2026-04-28 05:32 -33.86828 25.06871 8015 ft 85 kts 245°
2026-04-28 05:32 -33.87010 25.06192 8016 ft 85 kts 245°
2026-04-28 05:33 -33.87189 25.05522 8017 ft 85 kts 245°
2026-04-28 05:33 -33.87371 25.04842 8017 ft 85 kts 245°
2026-04-28 05:33 -33.87555 25.04163 8015 ft 85 kts 246°
2026-04-28 05:33 -33.87734 25.03488 8014 ft 85 kts 246°
2026-04-28 05:34 -33.87916 25.02809 8014 ft 84 kts 246°
2026-04-28 05:34 -33.88097 25.02132 8015 ft 85 kts 247°
2026-04-28 05:34 -33.88278 25.01451 8016 ft 85 kts 246°
2026-04-28 05:34 -33.88459 25.00774 8017 ft 85 kts 246°
2026-04-28 05:35 -33.88640 25.00096 8018 ft 85 kts 246°
2026-04-28 05:35 -33.88821 24.99414 8019 ft 86 kts 246°
2026-04-28 05:35 -33.89004 24.98729 8019 ft 86 kts 246°
2026-04-28 05:35 -33.89188 24.98040 8019 ft 86 kts 245°
2026-04-28 05:36 -33.89369 24.97360 8021 ft 85 kts 245°
2026-04-28 05:36 -33.89552 24.96681 8020 ft 85 kts 246°
2026-04-28 05:36 -33.89735 24.95992 8020 ft 86 kts 246°
2026-04-28 05:36 -33.89917 24.95312 8021 ft 85 kts 245°
2026-04-28 05:37 -33.90097 24.94634 8021 ft 85 kts 245°
2026-04-28 05:37 -33.90278 24.93956 8018 ft 85 kts 246°
2026-04-28 05:37 -33.90463 24.93266 8019 ft 86 kts 245°
2026-04-28 05:37 -33.90645 24.92585 8020 ft 85 kts 246°
2026-04-28 05:38 -33.90826 24.91900 8021 ft 85 kts 246°
2026-04-28 05:38 -33.91008 24.91223 8023 ft 85 kts 246°
2026-04-28 05:38 -33.91190 24.90538 8023 ft 86 kts 246°
2026-04-28 05:38 -33.91373 24.89849 8025 ft 86 kts 246°
2026-04-28 05:39 -33.91557 24.89158 8024 ft 86 kts 246°
2026-04-28 05:39 -33.91739 24.88472 8026 ft 86 kts 246°
2026-04-28 05:39 -33.91921 24.87786 8026 ft 85 kts 246°
2026-04-28 05:39 -33.92101 24.87109 8026 ft 85 kts 246°
2026-04-28 05:40 -33.92282 24.86430 8027 ft 85 kts 246°
2026-04-28 05:40 -33.92466 24.85738 8025 ft 86 kts 246°
2026-04-28 05:40 -33.92646 24.85055 8024 ft 86 kts 245°
2026-04-28 05:40 -33.92830 24.84368 8020 ft 86 kts 245°
2026-04-28 05:41 -33.93009 24.83693 8021 ft 85 kts 245°
2026-04-28 05:41 -33.93192 24.83013 8021 ft 85 kts 245°
2026-04-28 05:41 -33.93376 24.82326 8022 ft 86 kts 245°
2026-04-28 05:41 -33.93560 24.81641 8021 ft 86 kts 245°
2026-04-28 05:42 -33.93744 24.80958 8022 ft 85 kts 246°
2026-04-28 05:42 -33.93927 24.80275 8020 ft 85 kts 245°
2026-04-28 05:42 -33.94107 24.79604 8022 ft 84 kts 245°
2026-04-28 05:42 -33.94289 24.78923 8022 ft 85 kts 246°
2026-04-28 05:43 -33.94469 24.78252 8024 ft 84 kts 246°
2026-04-28 05:43 -33.94649 24.77576 8024 ft 84 kts 246°
2026-04-28 05:43 -33.94828 24.76903 8024 ft 84 kts 246°
2026-04-28 05:43 -33.95006 24.76231 8022 ft 84 kts 246°
2026-04-28 05:44 -33.95186 24.75557 8021 ft 84 kts 246°
2026-04-28 05:44 -33.95361 24.74893 8020 ft 84 kts 246°
2026-04-28 05:44 -33.95538 24.74221 8020 ft 84 kts 245°
2026-04-28 05:44 -33.95716 24.73552 8019 ft 84 kts 246°
2026-04-28 05:45 -33.95893 24.72882 8019 ft 83 kts 245°
2026-04-28 05:45 -33.96071 24.72213 8021 ft 84 kts 245°
2026-04-28 05:45 -33.96246 24.71547 8022 ft 84 kts 246°
2026-04-28 05:45 -33.96427 24.70867 8027 ft 84 kts 246°
2026-04-28 05:46 -33.96605 24.70193 8026 ft 85 kts 245°
2026-04-28 05:46 -33.96783 24.69512 8028 ft 84 kts 246°
2026-04-28 05:46 -33.96962 24.68840 8028 ft 85 kts 246°
2026-04-28 05:46 -33.97142 24.68160 8026 ft 85 kts 245°
2026-04-28 05:47 -33.97323 24.67473 8025 ft 85 kts 246°
2026-04-28 05:47 -33.97503 24.66795 8025 ft 85 kts 246°
2026-04-28 05:47 -33.97684 24.66105 8024 ft 85 kts 246°
2026-04-28 05:47 -33.97866 24.65422 8023 ft 85 kts 246°
2026-04-28 05:48 -33.98043 24.64746 8022 ft 85 kts 246°
2026-04-28 05:48 -33.98223 24.64068 8023 ft 85 kts 246°
2026-04-28 05:48 -33.98399 24.63395 8023 ft 84 kts 246°
2026-04-28 05:48 -33.98576 24.62723 8025 ft 84 kts 246°
2026-04-28 05:49 -33.98753 24.62051 8025 ft 84 kts 245°
2026-04-28 05:49 -33.98930 24.61378 8026 ft 84 kts 245°
2026-04-28 05:49 -33.99110 24.60700 8026 ft 84 kts 246°
2026-04-28 05:49 -33.99162 24.59980 8025 ft 87 kts 258°
2026-04-28 05:50 -33.99182 24.59250 8027 ft 87 kts 258°
2026-04-28 05:50 -33.99200 24.58516 8028 ft 87 kts 258°
2026-04-28 05:50 -33.99217 24.57790 8028 ft 87 kts 258°
2026-04-28 05:50 -33.99232 24.57060 8029 ft 87 kts 258°
2026-04-28 05:51 -33.99248 24.56328 8031 ft 88 kts 258°
2026-04-28 05:51 -33.99262 24.55588 8031 ft 87 kts 258°
2026-04-28 05:51 -33.99275 24.54860 8029 ft 87 kts 258°
2026-04-28 05:51 -33.99287 24.54120 8029 ft 87 kts 258°
2026-04-28 05:52 -33.99302 24.53398 8029 ft 87 kts 259°
2026-04-28 05:52 -33.99312 24.52661 8030 ft 87 kts 258°
2026-04-28 05:52 -33.99325 24.51932 8030 ft 86 kts 258°
2026-04-28 05:52 -33.99338 24.51213 8030 ft 86 kts 259°
2026-04-28 05:53 -33.99349 24.50487 8030 ft 87 kts 259°
2026-04-28 05:53 -33.99359 24.49762 8031 ft 87 kts 259°
2026-04-28 05:53 -33.99371 24.49027 8031 ft 87 kts 258°
2026-04-28 05:53 -33.99381 24.48287 8029 ft 87 kts 258°
2026-04-28 05:54 -33.99394 24.47563 8029 ft 87 kts 259°
2026-04-28 05:54 -33.99404 24.46831 8028 ft 87 kts 258°
2026-04-28 05:54 -33.99416 24.46094 8028 ft 87 kts 259°
2026-04-28 05:54 -33.99427 24.45369 8029 ft 87 kts 258°
2026-04-28 05:55 -33.99437 24.44644 8032 ft 87 kts 258°
2026-04-28 05:55 -33.99448 24.43909 8034 ft 87 kts 259°
2026-04-28 05:55 -33.99459 24.43177 8036 ft 87 kts 258°
2026-04-28 05:55 -33.99470 24.42450 8037 ft 87 kts 259°
2026-04-28 05:56 -33.99481 24.41707 8039 ft 87 kts 258°
2026-04-28 05:56 -33.99492 24.40971 8039 ft 88 kts 259°
2026-04-28 05:56 -33.99502 24.40233 8036 ft 88 kts 258°
2026-04-28 05:56 -33.99514 24.39504 8034 ft 88 kts 259°
2026-04-28 05:57 -33.99524 24.38760 8038 ft 87 kts 259°
2026-04-28 05:57 -33.99533 24.38029 8042 ft 87 kts 259°
2026-04-28 05:57 -33.99544 24.37294 8044 ft 87 kts 259°
2026-04-28 05:57 -33.99554 24.36560 8044 ft 87 kts 258°
2026-04-28 05:58 -33.99564 24.35837 8047 ft 87 kts 259°
2026-04-28 05:58 -33.99574 24.35103 8045 ft 87 kts 258°
2026-04-28 05:58 -33.99585 24.34380 8051 ft 87 kts 259°
2026-04-28 05:58 -33.99594 24.33640 8053 ft 88 kts 258°
2026-04-28 05:59 -33.99607 24.32907 8049 ft 88 kts 259°
2026-04-28 05:59 -33.99616 24.32164 8050 ft 88 kts 259°
2026-04-28 05:59 -33.99626 24.31427 8051 ft 88 kts 259°
2026-04-28 05:59 -33.99636 24.30692 8050 ft 88 kts 259°
2026-04-28 06:00 -33.99648 24.29942 8051 ft 89 kts 259°
2026-04-28 06:00 -33.99656 24.29202 8053 ft 89 kts 258°
2026-04-28 06:00 -33.99667 24.28460 8051 ft 89 kts 259°
2026-04-28 06:00 -33.99678 24.27709 8050 ft 89 kts 259°
2026-04-28 06:01 -33.99686 24.26969 8049 ft 88 kts 259°
2026-04-28 06:01 -33.99698 24.26225 8050 ft 88 kts 259°
2026-04-28 06:01 -33.99707 24.25487 8048 ft 88 kts 259°
2026-04-28 06:01 -33.99716 24.24755 8046 ft 87 kts 258°
2026-04-28 06:02 -33.99727 24.24017 8051 ft 87 kts 259°
2026-04-28 06:02 -33.99735 24.23295 8057 ft 87 kts 259°
2026-04-28 06:02 -33.99746 24.22571 8065 ft 86 kts 259°
2026-04-28 06:02 -33.99755 24.21839 8071 ft 86 kts 259°
2026-04-28 06:03 -33.99764 24.21113 8071 ft 87 kts 258°
2026-04-28 06:03 -33.99773 24.20381 8072 ft 86 kts 258°
2026-04-28 06:03 -33.99783 24.19651 8071 ft 87 kts 258°
2026-04-28 06:03 -33.99790 24.18926 8071 ft 87 kts 258°
2026-04-28 06:04 -33.99800 24.18190 8071 ft 87 kts 258°
2026-04-28 06:04 -33.99810 24.17463 8069 ft 87 kts 258°
2026-04-28 06:04 -33.99820 24.16736 8070 ft 87 kts 258°
2026-04-28 06:04 -33.99829 24.16003 8069 ft 87 kts 258°
2026-04-28 06:05 -33.99838 24.15280 8070 ft 87 kts 258°
2026-04-28 06:05 -33.99847 24.14546 8072 ft 87 kts 258°
2026-04-28 06:05 -33.99856 24.13823 8074 ft 86 kts 258°
2026-04-28 06:05 -33.99864 24.13102 8073 ft 87 kts 257°
2026-04-28 06:06 -33.99874 24.12369 8074 ft 87 kts 258°
2026-04-28 06:06 -33.99882 24.11644 8074 ft 87 kts 258°
2026-04-28 06:06 -33.99892 24.10907 8077 ft 88 kts 258°
2026-04-28 06:06 -33.99901 24.10171 8073 ft 88 kts 258°
2026-04-28 06:07 -33.99911 24.09424 8069 ft 88 kts 258°
2026-04-28 06:07 -33.99920 24.08683 8060 ft 89 kts 258°
2026-04-28 06:07 -33.99930 24.07941 8053 ft 89 kts 259°
2026-04-28 06:07 -33.99938 24.07193 8047 ft 89 kts 259°
2026-04-28 06:08 -33.99947 24.06450 8048 ft 88 kts 259°
2026-04-28 06:08 -33.99955 24.05703 8050 ft 88 kts 259°
2026-04-28 06:08 -33.99963 24.04967 8050 ft 88 kts 259°
2026-04-28 06:08 -33.99972 24.04227 8056 ft 89 kts 259°
2026-04-28 06:09 -33.99979 24.03479 8052 ft 88 kts 258°
2026-04-28 06:09 -33.99987 24.02753 8048 ft 88 kts 258°
2026-04-28 06:09 -33.99994 24.02018 8059 ft 87 kts 258°
2026-04-28 06:09 -34.00002 24.01280 8067 ft 87 kts 258°
2026-04-28 06:10 -34.00010 24.00548 8071 ft 88 kts 258°
2026-04-28 06:10 -34.00019 23.99807 8077 ft 89 kts 259°
2026-04-28 06:10 -34.00028 23.99051 8079 ft 89 kts 259°
2026-04-28 06:10 -34.00036 23.98312 8082 ft 89 kts 259°
2026-04-28 06:11 -34.00043 23.97555 8082 ft 89 kts 259°
2026-04-28 06:11 -34.00052 23.96810 8081 ft 89 kts 258°
2026-04-28 06:11 -34.00061 23.96064 8079 ft 89 kts 259°
2026-04-28 06:11 -34.00069 23.95309 8077 ft 89 kts 259°
2026-04-28 06:12 -34.00077 23.94567 8077 ft 89 kts 259°
2026-04-28 06:12 -34.00085 23.93811 8077 ft 89 kts 259°
2026-04-28 06:12 -34.00093 23.93061 8075 ft 89 kts 258°
2026-04-28 06:12 -34.00102 23.92308 8075 ft 89 kts 258°
2026-04-28 06:13 -34.00109 23.91566 8075 ft 89 kts 259°
2026-04-28 06:13 -34.00118 23.90820 8075 ft 88 kts 259°
2026-04-28 06:13 -34.00126 23.90086 8071 ft 88 kts 259°
2026-04-28 06:13 -34.00133 23.89347 8073 ft 87 kts 259°
2026-04-28 06:14 -34.00140 23.88621 8077 ft 87 kts 259°
2026-04-28 06:14 -34.00148 23.87884 8077 ft 88 kts 259°
2026-04-28 06:14 -34.00155 23.87137 8076 ft 88 kts 259°
2026-04-28 06:14 -34.00162 23.86397 8075 ft 89 kts 259°
2026-04-28 06:15 -34.00171 23.85638 8072 ft 90 kts 258°
2026-04-28 06:15 -34.00178 23.84882 8071 ft 90 kts 259°
2026-04-28 06:15 -34.00185 23.84128 8070 ft 91 kts 259°
2026-04-28 06:15 -34.00194 23.83113 8072 ft 90 kts 258°
2026-04-28 06:16 -34.00199 23.82608 8075 ft 90 kts 259°
2026-04-28 06:16 -34.00206 23.81864 8075 ft 90 kts 259°
2026-04-28 06:16 -34.00214 23.81113 8074 ft 89 kts 259°
2026-04-28 06:16 -34.00222 23.80362 8074 ft 89 kts 259°
2026-04-28 06:17 -34.00229 23.79602 8075 ft 89 kts 259°
2026-04-28 06:17 -34.00236 23.78857 8073 ft 89 kts 259°
2026-04-28 06:17 -34.00243 23.78112 8076 ft 89 kts 259°
2026-04-28 06:18 -34.00257 23.76605 8076 ft 90 kts 259°
2026-04-28 06:18 -34.00264 23.75850 8077 ft 90 kts 259°
2026-04-28 06:18 -34.00270 23.75097 8078 ft 90 kts 258°
2026-04-28 06:18 -34.00276 23.74337 8079 ft 91 kts 258°
2026-04-28 06:19 -34.00284 23.73577 8080 ft 90 kts 258°
2026-04-28 06:19 -34.00291 23.72818 8082 ft 90 kts 259°
2026-04-28 06:19 -34.00298 23.72053 8083 ft 92 kts 258°
2026-04-28 06:19 -34.00304 23.71282 8083 ft 92 kts 258°
2026-04-28 06:20 -34.00311 23.70508 8084 ft 92 kts 258°
2026-04-28 06:20 -34.00319 23.69741 8080 ft 91 kts 258°
2026-04-28 06:20 -34.00325 23.68980 8080 ft 91 kts 259°
2026-04-28 06:20 -34.00332 23.68212 8083 ft 91 kts 259°
2026-04-28 06:21 -34.00339 23.67448 8084 ft 92 kts 258°
2026-04-28 06:21 -34.00346 23.66671 8083 ft 92 kts 259°
2026-04-28 06:21 -34.00351 23.65900 8082 ft 92 kts 258°
2026-04-28 06:21 -34.00358 23.65136 8082 ft 92 kts 258°
2026-04-28 06:22 -34.00364 23.64356 8080 ft 92 kts 259°
2026-04-28 06:22 -34.00372 23.63585 8076 ft 93 kts 258°
2026-04-28 06:22 -34.00377 23.62812 8077 ft 93 kts 258°
2026-04-28 06:22 -34.00384 23.62030 8078 ft 93 kts 259°
2026-04-28 06:23 -34.00389 23.61248 8076 ft 93 kts 258°
2026-04-28 06:23 -34.00395 23.60455 8075 ft 93 kts 259°
2026-04-28 06:23 -34.00403 23.59678 8072 ft 93 kts 259°
2026-04-28 06:23 -34.00407 23.58903 8077 ft 93 kts 258°
2026-04-28 06:24 -34.00413 23.58123 8074 ft 93 kts 258°
2026-04-28 06:24 -34.00419 23.57332 8070 ft 93 kts 258°
2026-04-28 06:24 -34.00426 23.56551 8068 ft 93 kts 259°
2026-04-28 06:24 -34.00432 23.55761 8067 ft 93 kts 258°
2026-04-28 06:25 -34.00438 23.54990 8069 ft 92 kts 258°
2026-04-28 06:25 -34.00444 23.54219 8071 ft 92 kts 259°
2026-04-28 06:25 -34.00449 23.53448 8071 ft 92 kts 259°
2026-04-28 06:25 -34.00456 23.52672 8070 ft 93 kts 259°
2026-04-28 06:26 -34.00461 23.51891 8068 ft 93 kts 259°
2026-04-28 06:26 -34.00467 23.51110 8068 ft 93 kts 258°
2026-04-28 06:26 -34.00472 23.50338 8069 ft 93 kts 258°
2026-04-28 06:26 -34.00476 23.49549 8067 ft 95 kts 261°
2026-04-28 06:27 -34.00170 23.48798 8042 ft 110 kts 300°
2026-04-28 06:27 -33.99433 23.48405 8044 ft 125 kts 339°
2026-04-28 06:27 -33.98546 23.48609 8049 ft 134 kts 17°
2026-04-28 06:27 -33.97708 23.49081 8071 ft 134 kts 17°
2026-04-28 06:28 -33.96845 23.49542 8073 ft 134 kts 15°
2026-04-28 06:28 -33.95967 23.49792 8074 ft 125 kts 345°
2026-04-28 06:28 -33.95266 23.49366 8080 ft 105 kts 296°
2026-04-28 06:28 -33.95114 23.48612 8081 ft 89 kts 251°
2026-04-28 06:29 -33.95232 23.47864 8078 ft 90 kts 250°
2026-04-28 06:29 -33.95466 23.47182 8081 ft 89 kts 240°
2026-04-28 06:29 -33.95845 23.46620 8088 ft 89 kts 207°
2026-04-28 06:29 -33.96481 23.46708 8094 ft 104 kts 160°
2026-04-28 06:30 -33.96907 23.47475 8093 ft 123 kts 112°
2026-04-28 06:30 -33.96890 23.48552 8090 ft 130 kts 89°
2026-04-28 06:30 -33.96786 23.49647 8082 ft 132 kts 87°
2026-04-28 06:30 -33.96899 23.50700 8058 ft 122 kts 119°
2026-04-28 06:31 -33.97405 23.51405 8053 ft 105 kts 159°
2026-04-28 06:31 -33.98059 23.51508 8051 ft 90 kts 199°
2026-04-28 06:31 -33.98505 23.51037 8053 ft 87 kts 237°
2026-04-28 06:31 -33.98755 23.50377 8075 ft 87 kts 238°
2026-04-28 06:32 -33.98860 23.49642 8072 ft 91 kts 257°
2026-04-28 06:32 -33.98887 23.48876 8079 ft 92 kts 257°
2026-04-28 06:32 -33.98917 23.48104 8080 ft 93 kts 257°
2026-04-28 06:32 -33.98948 23.47320 8083 ft 93 kts 257°
2026-04-28 06:33 -33.98978 23.46542 8087 ft 93 kts 257°
2026-04-28 06:33 -33.99006 23.45768 8090 ft 93 kts 256°
2026-04-28 06:33 -33.99016 23.44992 8091 ft 93 kts 259°
2026-04-28 06:33 -33.99024 23.44208 8093 ft 93 kts 258°
2026-04-28 06:34 -33.99030 23.43420 8095 ft 94 kts 259°
2026-04-28 06:34 -33.99034 23.42624 8092 ft 95 kts 259°
2026-04-28 06:34 -33.99038 23.41825 8091 ft 95 kts 258°
2026-04-28 06:34 -33.99042 23.41022 8084 ft 95 kts 259°
2026-04-28 06:35 -33.99044 23.40223 8081 ft 95 kts 258°
2026-04-28 06:35 -33.99046 23.39432 8083 ft 94 kts 259°
2026-04-28 06:35 -33.99048 23.38632 8082 ft 95 kts 259°
2026-04-28 06:35 -33.99050 23.37837 8081 ft 95 kts 258°
2026-04-28 06:36 -33.99051 23.37042 8084 ft 94 kts 259°
2026-04-28 06:36 -33.99054 23.36257 8085 ft 95 kts 259°
2026-04-28 06:36 -33.99056 23.35453 8085 ft 95 kts 259°
2026-04-28 06:36 -33.99056 23.34650 8085 ft 96 kts 259°
2026-04-28 06:37 -33.99057 23.33850 8084 ft 96 kts 260°
2026-04-28 06:37 -33.99059 23.33044 8083 ft 96 kts 260°
2026-04-28 06:37 -33.99059 23.32236 8082 ft 96 kts 259°
2026-04-28 06:37 -33.99060 23.31433 8083 ft 96 kts 259°
2026-04-28 06:38 -33.99061 23.30622 8083 ft 97 kts 259°
2026-04-28 06:38 -33.99061 23.29821 8085 ft 96 kts 259°
2026-04-28 06:38 -33.99063 23.29009 8088 ft 97 kts 259°
2026-04-28 06:38 -33.99063 23.28200 8087 ft 96 kts 259°
2026-04-28 06:39 -33.99063 23.27384 8087 ft 96 kts 259°
2026-04-28 06:39 -33.99064 23.26576 8090 ft 97 kts 259°
2026-04-28 06:39 -33.99065 23.25768 8090 ft 97 kts 260°
2026-04-28 06:39 -33.99065 23.24948 8088 ft 97 kts 259°
2026-04-28 06:40 -33.99065 23.24136 8084 ft 97 kts 259°
2026-04-28 06:40 -33.99068 23.23299 8003 ft 101 kts 259°
2026-04-28 06:40 -33.99071 23.22455 7916 ft 101 kts 259°
2026-04-28 06:40 -33.99075 23.21606 7832 ft 102 kts 259°
2026-04-28 06:41 -33.99075 23.20746 7748 ft 102 kts 260°
2026-04-28 06:41 -33.99077 23.19892 7667 ft 102 kts 260°
2026-04-28 06:41 -33.99078 23.19031 7582 ft 103 kts 260°
2026-04-28 06:41 -33.99077 23.18176 7498 ft 103 kts 260°
2026-04-28 06:42 -33.99078 23.17302 7413 ft 103 kts 260°
2026-04-28 06:42 -33.99078 23.16437 7328 ft 104 kts 260°
2026-04-28 06:42 -33.99078 23.15561 7245 ft 105 kts 261°
2026-04-28 06:42 -33.99077 23.14680 7163 ft 105 kts 260°
2026-04-28 06:43 -33.99077 23.13804 7086 ft 105 kts 260°
2026-04-28 06:43 -33.99078 23.12927 7003 ft 104 kts 260°
2026-04-28 06:43 -33.99077 23.12057 6921 ft 104 kts 261°
2026-04-28 06:43 -33.99075 23.11181 6834 ft 104 kts 261°
2026-04-28 06:44 -33.99075 23.10312 6749 ft 104 kts 262°
2026-04-28 06:44 -33.99076 23.09436 6663 ft 104 kts 261°
2026-04-28 06:44 -33.99075 23.08554 6577 ft 104 kts 261°
2026-04-28 06:44 -33.99074 23.07683 6502 ft 104 kts 261°
2026-04-28 06:45 -33.99074 23.06816 6425 ft 104 kts 262°
2026-04-28 06:45 -33.99072 23.05931 6345 ft 105 kts 262°
2026-04-28 06:45 -33.99070 23.05054 6262 ft 105 kts 262°
2026-04-28 06:45 -33.99069 23.04181 6180 ft 105 kts 262°
2026-04-28 06:46 -33.99068 23.03292 6097 ft 106 kts 262°
2026-04-28 06:46 -33.99066 23.02406 6013 ft 106 kts 262°
2026-04-28 06:46 -33.99064 23.01510 5927 ft 107 kts 262°
2026-04-28 06:46 -33.99063 23.00611 5840 ft 107 kts 262°
2026-04-28 06:47 -33.99061 22.99719 5752 ft 107 kts 262°
2026-04-28 06:47 -33.99060 22.98819 5665 ft 106 kts 262°
2026-04-28 06:47 -33.99058 22.97930 5580 ft 106 kts 262°
2026-04-28 06:47 -33.99057 22.97041 5495 ft 106 kts 262°
2026-04-28 06:48 -33.99056 22.96152 5411 ft 107 kts 262°
2026-04-28 06:48 -33.99054 22.95256 5327 ft 106 kts 262°
2026-04-28 06:48 -33.99052 22.94360 5243 ft 107 kts 262°
2026-04-28 06:48 -33.99050 22.93465 5165 ft 106 kts 262°
2026-04-28 06:49 -33.99048 22.92566 5079 ft 107 kts 262°
2026-04-28 06:49 -33.99045 22.91672 5006 ft 106 kts 262°
2026-04-28 06:49 -33.99046 22.90777 4928 ft 107 kts 261°
2026-04-28 06:49 -33.99044 22.89876 4840 ft 107 kts 262°
2026-04-28 06:50 -33.99044 22.88968 4774 ft 106 kts 263°
2026-04-28 06:50 -33.99041 22.88067 4690 ft 107 kts 263°
2026-04-28 06:50 -33.99038 22.87164 4617 ft 108 kts 264°
2026-04-28 06:50 -33.99034 22.86258 4528 ft 108 kts 263°
2026-04-28 06:51 -33.99032 22.85339 4441 ft 108 kts 263°
2026-04-28 06:51 -33.99029 22.84438 4359 ft 109 kts 263°
2026-04-28 06:51 -33.99025 22.83521 4273 ft 108 kts 263°
2026-04-28 06:51 -33.99023 22.82610 4190 ft 108 kts 263°
2026-04-28 06:52 -33.99019 22.81707 4107 ft 108 kts 263°
2026-04-28 06:52 -33.99016 22.80799 4022 ft 109 kts 263°
2026-04-28 06:52 -33.99014 22.79887 3937 ft 109 kts 263°
2026-04-28 06:52 -33.99009 22.78975 3853 ft 109 kts 263°
2026-04-28 06:53 -33.99007 22.78059 3769 ft 109 kts 263°
2026-04-28 06:53 -33.99004 22.77136 3685 ft 109 kts 263°
2026-04-28 06:53 -33.99002 22.76230 3603 ft 109 kts 263°
2026-04-28 06:53 -33.98999 22.75314 3520 ft 109 kts 264°
2026-04-28 06:54 -33.98995 22.74404 3432 ft 109 kts 264°
2026-04-28 06:54 -33.98992 22.73491 3346 ft 109 kts 264°
2026-04-28 06:54 -33.98989 22.72565 3263 ft 110 kts 264°
2026-04-28 06:54 -33.98983 22.71655 3183 ft 110 kts 263°
2026-04-28 06:55 -33.98980 22.70728 3100 ft 110 kts 264°
2026-04-28 06:55 -33.98976 22.69802 3016 ft 110 kts 264°
2026-04-28 06:55 -33.98972 22.68878 2929 ft 110 kts 263°
2026-04-28 06:55 -33.98969 22.67955 2848 ft 110 kts 264°
2026-04-28 06:56 -33.98965 22.67031 2764 ft 110 kts 264°
2026-04-28 06:56 -33.98962 22.66107 2676 ft 110 kts 264°
2026-04-28 06:56 -33.98959 22.65196 2591 ft 110 kts 264°
2026-04-28 06:56 -33.98954 22.64267 2509 ft 109 kts 264°
2026-04-28 06:57 -33.98996 22.63363 2435 ft 109 kts 261°
2026-04-28 06:57 -33.99055 22.62456 2355 ft 109 kts 261°
2026-04-28 06:57 -33.99117 22.61543 2273 ft 110 kts 261°
2026-04-28 06:57 -33.99184 22.60621 2191 ft 110 kts 261°
2026-04-28 06:58 -33.99254 22.59695 2107 ft 110 kts 261°
2026-04-28 06:58 -33.99322 22.58789 2020 ft 109 kts 260°
2026-04-28 06:58 -33.99389 22.57884 1924 ft 106 kts 260°
2026-04-28 06:58 -33.99455 22.57013 1870 ft 102 kts 261°
2026-04-28 06:59 -33.99522 22.56171 1859 ft 98 kts 260°
2026-04-28 06:59 -33.99580 22.55454 2081 ft 82 kts 261°
2026-04-28 06:59 -33.99644 22.54738 2091 ft 88 kts 261°
2026-04-28 06:59 -33.99706 22.53986 2114 ft 90 kts 260°
2026-04-28 07:00 -33.99761 22.53236 2103 ft 89 kts 261°
2026-04-28 07:00 -33.99813 22.52507 2103 ft 87 kts 260°
2026-04-28 07:00 -33.99860 22.51772 2030 ft 85 kts 260°
2026-04-28 07:00 -33.99894 22.51082 1930 ft 78 kts 259°
2026-04-28 07:01 -33.99919 22.50460 1861 ft 71 kts 259°
2026-04-28 07:01 -33.99953 22.49856 1740 ft 75 kts 259°
2026-04-28 07:01 -33.99966 22.49238 1655 ft 71 kts 263°
2026-04-28 07:01 -33.99970 22.48666 1615 ft 68 kts 263°
2026-04-28 07:02 -33.99951 22.48079 1523 ft 70 kts 264°
2026-04-28 07:02 -33.99948 22.47500 1444 ft 69 kts 263°
2026-04-28 07:02 -33.99959 22.46930 1419 ft 63 kts 262°
2026-04-28 07:02 -33.99971 22.46436 1452 ft 58 kts 262°
2026-04-28 07:03 -33.99997 22.45945 1431 ft 59 kts 258°
2026-04-28 07:03 -34.00110 22.45474 1422 ft 60 kts 242°
2026-04-28 07:03 -34.00304 22.44992 1352 ft 68 kts 244°
2026-04-28 07:03 -34.00404 22.44408 1245 ft 74 kts 261°
2026-04-28 07:04 -34.00403 22.43802 1215 ft 71 kts 268°
2026-04-28 07:04 -34.00365 22.43212 1182 ft 68 kts 264°
2026-04-28 07:04 -34.00396 22.42637 1136 ft 68 kts 260°
2026-04-28 07:04 -34.00424 22.42067 1085 ft 68 kts 260°
2026-04-28 07:05 -34.00445 22.41495 1028 ft 69 kts 263°
2026-04-28 07:05 -34.00460 22.40888 916 ft 72 kts 263°
2026-04-28 07:05 -34.00474 22.40314 856 ft 63 kts 261°
2026-04-28 07:05 -34.00497 22.39829 820 ft 52 kts 262°
2026-04-28 07:06 -34.00501 22.39420 763 ft 43 kts 261°
2026-04-28 07:06 -34.00500 22.39174 708 ft 13 kts 270°
2026-04-28 07:06 -34.00514 22.39047 681 ft 9 kts 266°
2026-04-28 07:06 -34.00533 22.38968 646 ft 8 kts 330°
2026-04-28 07:07 -34.00454 22.38928 652 ft 10 kts 345°
2026-04-28 07:07 -34.00343 22.38899 657 ft 20 kts 317°
2026-04-28 07:07 -34.00314 22.38757 653 ft 12 kts 281°
2026-04-28 07:07 -34.00321 22.38632 647 ft 13 kts 282°
2026-04-28 07:08 -34.00331 22.38545 641 ft 6 kts 308°
2026-04-28 07:08 -34.00323 22.38444 655 ft 15 kts 270°
2026-04-28 07:08 -34.00330 22.38322 653 ft 14 kts 278°
2026-04-28 07:08 -34.00315 22.38230 664 ft 11 kts 327°
2026-04-28 07:09 -34.00313 22.38029 664 ft 42 kts 245°
2026-04-28 07:09 -34.00353 22.37761 709 ft 15 kts 311°
2026-04-28 07:09 -34.00272 22.37686 700 ft 17 kts 347°
2026-04-28 07:09 -34.00203 22.37662 631 ft 6 kts
2026-04-28 07:10 -34.00168 22.37655 631 ft 5 kts
2026-04-28 07:10 -34.00133 22.37642 626 ft 3 kts 359°
2026-04-28 07:10 -34.00123 22.37639 619 ft 0 kts